Location: ??????
(55.7522°N, 37.6156°E)
Time: 17:58:41
(UTC+00:00)

NOSS 2-1 (E) - Pass Details

Date: 14 June 2025
Orbit: 385 x 1749 km, 63.3° (Epoch: 07 May)

Event Time Altitude Azimuth Distance (km) Brightness Sun altitude
Rises 20:46:22 0° 307° (NW) 2,328 7.3 -10.4°
Reaches altitude 10° 20:48:14 10° 308° (NW) 1,523 6.3 -10.4°
Maximum altitude 20:51:31 88° 40° (NE) 492 3.0 -10.5°
Drops below altitude 10° 20:55:41 10° 129° (SE) 1,927 5.7 -10.6°
Enters shadow 20:56:33 - 129° (SE) 2,291 6.0 -10.6°
